カタログに戻る

STARLINK-36112

運用中通信VLEO
NORAD 66944·PAYLOAD·🇺🇸 United States

打ち上げ Dec 7, 2025 から Vandenberg Space Force Base

Loading…

次のパス (今後24時間)

TLE

最新Source: CelesTrak SupGP

元期: Sep 14, 2026, 15:52 UTC

1 66944C 25286V   26257.66159722  .00056964  00000+0  16836-2 0  2574
2 66944  53.1575 196.7398 0001188  88.1320 319.6169 15.34351084    10

AllMySatでSTARLINK-36112をリアルタイム追跡

Download on the App Store